This demonstration page uses our WeatherBlox Daily Observations layout. Learn more.

Left ArrowRight Arrow

Hourly Observations for May 15, 2020

Temp ( °F °C ) Dew Point ( °F °C ) Humidity (%) Winds ( mph kmh ) Pressure ( in mb ) Visibility ( mi km ) Precip ( " mm )
12:53 am 00:53 Clear 76 24.4 52 11.1 43 43 SSE 9 15 29.67 1005 10 16 0.00 0.00
1:53 am 01:53 Clear 77 25 62 16.7 60 60 SSE 10 17 29.66 1005 10 16 0.00 0.00
2:53 am 02:53 Clear 76 24.4 62 16.7 62 62 ESE 9 15 29.65 1004 10 16 0.00 0.00
3:53 am 03:53 Clear 74 23.3 63 17.2 69 69 ESE 8 13 29.63 1004 10 16 0.00 0.00
4:53 am 04:53 Clear 73 22.8 63 17.2 71 71 E 8 13 29.63 1004 10 16 0.00 0.00
5:53 am 05:53 Clear 73 22.8 64 17.8 74 74 SE 9 15 29.64 1004 10 16 0.00 0.00
6:53 am 06:53 Clear 70 21.1 64 17.8 82 82 SE 6 9 29.67 1005 10 16 0.00 0.00
7:53 am 07:53 Sunny 71 21.7 65 18.3 81 81 NE 3 6 29.69 1005 10 16 0.00 0.00
8:53 am 08:53 Sunny 74 23.3 66 18.9 76 76 SE 10 17 29.70 1006 10 16 0.00 0.00
9:53 am 09:53 Sunny 79 26.1 66 18.9 65 65 SE 8 13 29.69 1005 10 16 0.00 0.00
10:53 am 10:53 Sunny 82 27.8 65 18.3 56 56 ESE 8 13 29.69 1005 10 16 0.00 0.00
11:53 am 11:53 Sunny 85 29.4 59 15 42 42 E 5 7 29.68 1005 10 16 0.00 0.00
12:53 pm 12:53 Sunny 87 30.6 57 13.9 36 36 VRB 5 7 29.67 1005 10 16 0.00 0.00
1:53 pm 13:53 Sunny 89 31.7 52 11.1 28 28 Calm 29.65 1004 10 16 0.00 0.00
2:53 pm 14:53 Mostly Sunny 91 32.8 53 11.7 27 27 VRB 5 7 29.60 1003 10 16 0.00 0.00
3:53 pm 15:53 Sunny 94 34.4 46 7.8 19 19 W 14 22 29.55 1001 10 16 0.00 0.00
4:53 pm 16:53 Sunny 94 34.4 43 6.1 17 17 WSW 9 15 29.53 1000 10 16 0.00 0.00
5:53 pm 17:53 Sunny 95 35 38 3.3 14 14 W 13 20 29.52 1000 10 16 0.00 0.00
6:53 pm 18:53 Sunny 86 30 47 8.3 26 26 ENE 24 39 29.56 1001 10 16 0.00 0.00
7:10 pm 19:10 Sunny 80 26.7 49 9.4 34 34 ENE 20 31 29.54 1000 10 16 0.00 0.00
7:53 pm 19:53 Sunny 80 26.7 49 9.4 34 34 SE 23 37 29.60 1002 10 16 0.00 0.00
8:53 pm 20:53 Clear 73 22.8 52 11.1 48 48 ESE 16 26 29.62 1003 10 16 0.00 0.00
9:53 pm 21:53 Clear 70 21.1 53 11.7 55 55 ESE 13 20 29.65 1004 10 16 0.00 0.00
10:53 pm 22:53 Clear 68 20 53 11.7 59 59 SE 16 26 29.66 1004 10 16 0.00 0.00
11:53 pm 23:53 Clear 66 18.9 53 11.7 63 63 SE 10 17 29.66 1005 10 16 0.00 0.00

Powered by AerisWeather